• In Netherlands
  • List of Countries
  • For 7 days
  • Water Temperature
  • Satellite Maps
  • Weather Map
  • Weather Widgets
  • user-avatar
    Login

    Hourly Weather Pomorie

    Today, 15 December, Friday

    Time Temperature Precipitation Wind Pressure Humidity
    00:00 +10°C° 0 mm 2 mps 759 mmHg 90%
    01:00 +9°C° 0 mm 2 mps 759 mmHg 90%
    02:00 +9°C° 0 mm 3 mps 758 mmHg 90%
    03:00 +9°C° 0 mm 3 mps 759 mmHg 90%
    04:00 +9°C° 0 mm 3 mps 759 mmHg 90%
    05:00 +9°C° 0 mm 3 mps 759 mmHg 90%
    06:00 +8°C° 0 mm 3 mps 759 mmHg 89%
    07:00 +8°C° 0 mm 3 mps 759 mmHg 89%
    08:00 +8°C° 0 mm 2 mps 759 mmHg 87%
    09:00 +10°C° 0 mm 2 mps 759 mmHg 79%
    10:00 +12°C° 0 mm 2 mps 760 mmHg 71%
    11:00 +13°C° 0 mm 3 mps 760 mmHg 64%
    12:00 +14°C° 0 mm 3 mps 760 mmHg 60%
    13:00 +16°C° 0 mm 3 mps 759 mmHg 57%
    14:00 +16°C° 0 mm 3 mps 759 mmHg 53%
    15:00 +14°C° 0 mm 4 mps 759 mmHg 58%
    16:00 +13°C° 0 mm 4 mps 759 mmHg 62%
    17:00 +12°C° 0 mm 4 mps 759 mmHg 67%
    18:00 +12°C° 0 mm 4 mps 758 mmHg 71%
    19:00 +12°C° 0 mm 5 mps 758 mmHg 75%
    20:00 +11°C° 0 mm 6 mps 758 mmHg 78%
    21:00 +11°C° 0 mm 6 mps 758 mmHg 80%
    22:00 +12°C° 0 mm 7 mps 758 mmHg 81%
    23:00 +12°C° 0 mm 8 mps 758 mmHg 83%

    Tomorrow, 16 December, Saturday

    Time Temperature Precipitation Wind Pressure Humidity
    00:00 +12°C° 0 mm 8 mps 757 mmHg 84%
    01:00 +12°C° 0 mm 8 mps 757 mmHg 85%
    02:00 +12°C° 0 mm 9 mps 757 mmHg 86%
    03:00 +12°C° 0 mm 9 mps 756 mmHg 86%
    04:00 +12°C° 0 mm 9 mps 756 mmHg 85%
    05:00 +12°C° 0 mm 9 mps 756 mmHg 85%
    06:00 +12°C° 0 mm 9 mps 756 mmHg 83%
    07:00 +12°C° 0 mm 9 mps 756 mmHg 81%
    08:00 +12°C° 0 mm 9 mps 756 mmHg 80%
    09:00 +13°C° 0 mm 9 mps 756 mmHg 75%
    10:00 +14°C° 0 mm 10 mps 756 mmHg 70%
    11:00 +16°C° 0 mm 10 mps 756 mmHg 65%
    12:00 +17°C° 0 mm 10 mps 756 mmHg 62%
    13:00 +17°C° 0 mm 9 mps 755 mmHg 59%
    14:00 +18°C° 0 mm 9 mps 755 mmHg 56%
    15:00 +17°C° 0 mm 9 mps 755 mmHg 60%
    16:00 +16°C° 0 mm 9 mps 756 mmHg 64%
    17:00 +16°C° 0 mm 8 mps 756 mmHg 69%
    18:00 +15°C° 0 mm 8 mps 756 mmHg 72%
    19:00 +15°C° 0 mm 8 mps 756 mmHg 75%
    20:00 +15°C° 0 mm 8 mps 757 mmHg 78%
    21:00 +15°C° 0.4 mm 8 mps 757 mmHg 79%
    22:00 +14°C° 0.4 mm 7 mps 757 mmHg 80%
    23:00 +14°C° 0.4 mm 6 mps 757 mmHg 82%

    Day after tomorrow, 17 December, Sunday

    Time Temperature Precipitation Wind Pressure Humidity
    00:00 +14°C° 0.5 mm 6 mps 756 mmHg 82%
    01:00 +14°C° 0.5 mm 7 mps 756 mmHg 82%
    02:00 +14°C° 0.5 mm 7 mps 755 mmHg 81%
    03:00 +14°C° 0.7 mm 7 mps 755 mmHg 83%
    04:00 +13°C° 0.7 mm 8 mps 755 mmHg 85%
    05:00 +13°C° 0.7 mm 8 mps 754 mmHg 86%
    06:00 +12°C° 0.4 mm 8 mps 755 mmHg 85%
    07:00 +11°C° 0.4 mm 7 mps 755 mmHg 84%
    08:00 +11°C° 0.4 mm 6 mps 755 mmHg 83%
    09:00 +10°C° 1 mm 6 mps 756 mmHg 83%
    10:00 +10°C° 1 mm 6 mps 756 mmHg 83%
    11:00 +9°C° 1 mm 6 mps 757 mmHg 83%
    12:00 +8°C° 2.2 mm 6 mps 757 mmHg 83%
    13:00 +8°C° 2.2 mm 6 mps 757 mmHg 82%
    14:00 +7°C° 2.2 mm 6 mps 757 mmHg 82%
    15:00 +7°C° 0.9 mm 6 mps 757 mmHg 82%
    16:00 +5°C° 0.9 mm 6 mps 757 mmHg 82%
    17:00 +5°C° 0.9 mm 6 mps 758 mmHg 82%
    18:00 +5°C° 0.1 mm 6 mps 759 mmHg 82%
    19:00 +4°C° 0.1 mm 6 mps 760 mmHg 82%
    20:00 +4°C° 0.1 mm 6 mps 761 mmHg 82%
    21:00 +4°C° 0 mm 6 mps 762 mmHg 82%
    22:00 +3°C° 0 mm 6 mps 762 mmHg 81%
    23:00 +3°C° 0 mm 5 mps 763 mmHg 81%

    18 December, Monday

    Time Temperature Precipitation Wind Pressure Humidity
    00:00 +3°C° 0 mm 5 mps 764 mmHg 81%
    01:00 +2°C° 0 mm 5 mps 764 mmHg 81%
    02:00 +2°C° 0 mm 5 mps 765 mmHg 80%
    03:00 +2°C° 0 mm 5 mps 765 mmHg 81%
    04:00 +3°C° 0 mm 4 mps 765 mmHg 81%
    05:00 +3°C° 0 mm 4 mps 766 mmHg 82%
    06:00 +3°C° 0 mm 4 mps 766 mmHg 82%
    07:00 +3°C° 0 mm 4 mps 766 mmHg 81%
    08:00 +3°C° 0 mm 3 mps 767 mmHg 81%
    09:00 +3°C° 0 mm 3 mps 767 mmHg 76%
    10:00 +4°C° 0 mm 4 mps 767 mmHg 71%
    11:00 +5°C° 0 mm 4 mps 767 mmHg 66%
    12:00 +5°C° 0 mm 4 mps 767 mmHg 64%
    13:00 +5°C° 0 mm 4 mps 766 mmHg 62%
    14:00 +6°C° 0 mm 4 mps 766 mmHg 60%
    15:00 +5°C° 0 mm 4 mps 766 mmHg 63%
    16:00 +4°C° 0 mm 4 mps 766 mmHg 65%
    17:00 +4°C° 0 mm 4 mps 766 mmHg 68%
    18:00 +3°C° 0 mm 4 mps 766 mmHg 69%
    19:00 +3°C° 0 mm 4 mps 766 mmHg 70%
    20:00 +1°C° 0 mm 4 mps 767 mmHg 71%
    21:00 +1°C° 0 mm 5 mps 767 mmHg 71%
    22:00 +1°C° 0 mm 5 mps 767 mmHg 71%
    23:00 0°C° 0 mm 5 mps 768 mmHg 72%

    19 December, Tuesday

    Time Temperature Precipitation Wind Pressure Humidity
    00:00 0°C° 0 mm 5 mps 768 mmHg 73%
    01:00 0°C° 0 mm 5 mps 768 mmHg 74%
    02:00 -1°C° 0 mm 5 mps 768 mmHg 75%
    03:00 -1°C° 0 mm 5 mps 769 mmHg 76%
    04:00 -1°C° 0 mm 4 mps 769 mmHg 76%
    05:00 -1°C° 0 mm 4 mps 769 mmHg 77%
    06:00 -1°C° 0 mm 4 mps 770 mmHg 76%
    07:00 -1°C° 0 mm 4 mps 770 mmHg 76%
    08:00 0°C° 0 mm 3 mps 771 mmHg 76%
    09:00 +1°C° 0 mm 3 mps 771 mmHg 70%
    10:00 +2°C° 0 mm 3 mps 772 mmHg 65%
    11:00 +4°C° 0 mm 2 mps 772 mmHg 60%
    12:00 +4°C° 0 mm 2 mps 772 mmHg 57%
    13:00 +5°C° 0 mm 2 mps 772 mmHg 55%
    14:00 +5°C° 0 mm 2 mps 771 mmHg 53%
    15:00 +5°C° 0 mm 2 mps 771 mmHg 58%
    16:00 +5°C° 0 mm 1 mps 771 mmHg 62%
    17:00 +4°C° 0 mm 1 mps 772 mmHg 66%
    18:00 +4°C° 0 mm 1 mps 772 mmHg 68%
    19:00 +3°C° 0 mm 1 mps 772 mmHg 69%
    20:00 +3°C° 0 mm 1 mps 772 mmHg 70%
    21:00 +3°C° 0 mm 1 mps 772 mmHg 70%
    22:00 +3°C° 0 mm 1 mps 772 mmHg 71%
    23:00 +3°C° 0 mm 1 mps 772 mmHg 71%

    20 December, Wednesday

    Time Temperature Precipitation Wind Pressure Humidity
    00:00 +2°C° 0 mm 1 mps 772 mmHg 71%
    01:00 +2°C° 0 mm 1 mps 772 mmHg 71%
    02:00 +2°C° 0 mm 1 mps 772 mmHg 71%
    03:00 +1°C° 0 mm 2 mps 771 mmHg 71%
    04:00 +1°C° 0 mm 2 mps 771 mmHg 71%
    05:00 +1°C° 0 mm 2 mps 771 mmHg 71%
    06:00 +1°C° 0 mm 2 mps 772 mmHg 70%
    07:00 +1°C° 0 mm 2 mps 772 mmHg 69%
    08:00 +1°C° 0 mm 2 mps 772 mmHg 69%
    09:00 +1°C° 0 mm 3 mps 772 mmHg 64%
    10:00 +2°C° 0 mm 3 mps 772 mmHg 60%
    11:00 +3°C° 0 mm 3 mps 772 mmHg 55%
    12:00 +4°C° 0 mm 3 mps 772 mmHg 56%
    13:00 +4°C° 0 mm 4 mps 772 mmHg 56%
    14:00 +4°C° 0 mm 4 mps 772 mmHg 56%
    15:00 +4°C° 0.1 mm 4 mps 772 mmHg 61%
    16:00 +3°C° 0.1 mm 4 mps 772 mmHg 65%
    17:00 +1°C° 0.1 mm 4 mps 773 mmHg 70%
    18:00 +1°C° 0 mm 4 mps 773 mmHg 72%
    19:00 +1°C° 0 mm 4 mps 773 mmHg 74%
    20:00 0°C° 0 mm 4 mps 774 mmHg 76%
    21:00 0°C° 0 mm 4 mps 774 mmHg 78%
    22:00 0°C° 0 mm 4 mps 774 mmHg 80%
    23:00 0°C° 0 mm 4 mps 774 mmHg 82%
    Show more